[[{"header":{"parameterUnit":"m.s-1","parameterCategory":1,"la1":30.2991,"la2":30.254,"lo1":-89.0895,"lo2":-89.0444,"dy":0.0017,"dx":0.0017,"nx":28,"ny":28,"refTime":"2025-07-31T09:00:00:Z","depth":0,"parameterNumber":2,"parameterNumberName":"U-component_of_WINDS"},"data":[0,0,0,0,0,0,0,0,0,0,0,0,0,0,0,0,0,0,0,0,0,0,0,0,0,0,0,0,0,0,0,0,0,0,0,0,0,0,0,0,0,0,0,0,0,0,0,0,0,0,0,0,0,0,0,0,0,0,4.2391,4.2393,0,4.2564,4.2566,4.2568,4.2533,4.2529,4.2526,4.2523,4.2701,4.2708,4.2716,0,0,0,0,0,0,0,0,0,0,0,0,0,4.203,4.2036,4.2391,4.2393,4.2395,4.2563,4.2566,4.2568,4.2533,4.2529,4.2525,4.2522,4.2698,4.2707,4.2717,0,0,0,0,0,0,0,0,0,0,0,0,0,4.2193,4.2039,4.239,4.2398,4.24,4.2563,4.2566,4.2569,4.2534,4.2529,4.2524,4.252,4.2695,4.2707,4.2718,4.2884,0,0,4.2753,4.2758,0,0,0,0,0,0,0,0,4.2184,4.2206,4.2395,4.2398,4.2401,4.2522,4.2504,4.2675,4.2535,4.2483,4.2523,4.2518,4.2645,4.2661,4.2703,4.2892,4.29,4.2754,4.2761,4.2766,4.2769,0,0,0,0,0,0,0,4.2172,4.2199,4.2459,4.2397,4.2401,4.2392,4.241,4.2536,4.2589,4.2487,4.2485,4.2506,4.2646,4.2692,4.2707,4.2903,4.2754,4.2764,4.2771,4.2776,4.3235,4.324,0,0,0,0,0,0,4.2158,4.2189,4.2454,4.2464,4.2278,4.2403,4.2423,4.2488,4.2587,4.2598,4.251,4.2504,4.2675,4.2694,4.2713,4.2913,4.2766,4.2777,4.2783,4.323,4.3236,4.3242,0,0,0,0,0,0,4.2151,4.2182,4.2447,4.2326,4.2359,4.2414,4.2487,4.2494,4.254,4.2604,4.2614,4.2548,4.2672,4.2697,4.2841,4.2919,4.2782,4.2792,4.3223,4.3232,4.3239,4.3314,0,0,0,0,0,0,4.2141,4.218,4.2244,4.2328,4.2366,4.2572,4.2492,4.25,4.256,4.2554,4.2642,4.2652,4.267,4.2824,4.2853,4.2932,4.2801,4.3217,4.3227,4.3236,4.3305,4.3324,4.334,0,0,0,0,0,4.2128,4.2259,4.2247,4.2279,4.2447,4.2577,4.2598,4.2616,4.2566,4.2631,4.2672,4.265,4.2906,4.284,4.2871,4.2955,4.3212,4.3224,4.3236,4.3297,4.332,4.3339,0,0,0,0,0,0,4.2182,4.227,4.2258,4.242,4.2491,4.2571,4.2652,4.264,4.2727,4.2717,4.2736,4.2756,4.2902,4.2943,4.2868,4.312,4.3052,4.3071,4.3088,4.311,4.3127,4.3113,4.2811,0,0,0,0,0,4.2213,4.2311,4.2382,4.2518,4.2555,4.2598,4.2655,4.2662,4.2737,4.2767,4.2818,4.2891,4.2988,4.3052,4.3144,4.3311,4.3329,4.3384,4.3402,4.3416,4.3431,4.3521,4.3546,4.3281,4.3281,4.328,0,0,4.2278,4.2338,4.2399,4.2531,4.2587,4.2687,4.2623,4.2733,4.2807,4.2783,4.2922,4.2963,4.3046,4.3201,4.3272,4.324,4.3509,4.3431,4.3441,4.345,4.3536,4.3561,4.3583,4.3289,4.3287,4.3286,0,0,4.2446,4.2503,4.2621,4.2678,4.2764,4.2791,4.2819,4.2901,4.2927,4.3066,4.305,4.3139,4.3306,4.3365,4.3417,4.3607,4.359,4.3637,4.3727,4.3814,4.3835,4.3854,4.392,4.3944,4.3653,4.3653,4.3653,0,4.2516,4.2667,4.2684,4.2795,4.2853,4.2835,4.2955,4.301,4.3121,4.3161,4.3123,4.3331,4.3386,4.3554,4.3601,4.3644,4.3676,4.3627,4.3831,4.385,4.3867,4.393,4.3956,4.3658,4.3658,4.3657,4.3657,0,4.2747,4.2852,4.2938,4.3045,4.3113,4.3228,4.3261,4.3328,4.333,4.3361,4.3503,4.3568,4.3672,4.3713,4.3716,4.3882,4.3859,4.3826,4.3757,4.3897,4.3957,4.3981,4.3665,4.3664,4.3662,4.3661,0,0,4.2955,4.3069,4.31,4.3148,4.324,4.3322,4.3436,4.3538,4.3594,4.3671,4.3766,4.3907,4.3877,4.3936,4.3946,4.4022,4.4167,4.398,4.3982,4.4011,4.4351,4.4374,4.4402,4.4156,4.4161,4.4165,4.4344,0,4.3131,4.3331,4.3348,4.3528,4.3624,4.3609,4.3708,4.3775,4.3807,4.3894,4.393,4.4028,4.3982,4.4017,4.4092,4.4133,4.4235,4.4121,4.4243,4.4248,4.4221,4.4434,4.4458,4.4624,4.4367,4.4371,4.4374,0,4.3362,4.3446,4.3635,4.3712,4.3753,4.3842,4.3936,4.4019,4.4095,4.4113,4.4179,4.4177,4.4294,4.4222,4.4382,4.4303,4.4355,4.4382,4.4389,4.44,4.4318,4.4448,4.4678,4.4702,4.4412,4.4409,4.4406,0,4.3492,4.3652,4.3785,4.3827,4.3921,4.3984,4.4026,4.4097,4.4157,4.4239,4.4278,4.4374,4.4425,4.4499,4.4523,4.4469,4.4682,4.4612,4.4699,4.4699,4.4743,4.474,4.4983,4.478,4.478,4.4779,4.4779,0,4.3686,4.3801,4.3844,4.3926,4.4055,4.4075,4.4202,4.4241,4.4304,4.4392,4.4386,4.4469,4.4497,4.4585,4.4605,4.4733,4.4758,4.4775,4.4778,4.4774,4.4772,4.4807,4.4795,4.4786,4.4784,4.4783,4.4782,0,4.3852,4.3886,4.403,4.4107,4.4129,4.4221,4.4287,4.4365,4.4396,4.4508,4.4536,4.4584,4.4687,4.4719,4.4844,4.4857,4.5007,4.5001,4.4981,4.4981,4.5065,4.5056,4.5337,4.5374,4.5149,4.5151,4.5153,0,4.3972,4.4061,4.4147,4.4206,4.4251,4.4346,4.4406,4.4429,4.4492,4.4584,4.4651,4.4753,4.4836,4.5001,4.5048,4.5143,4.5138,4.523,4.5152,4.5145,4.5137,4.5131,4.5139,4.5244,4.5246,4.5248,4.525,0,4.4182,4.4194,4.4281,4.4375,4.4447,4.4522,4.4594,4.4642,4.4675,4.4747,4.4852,4.4916,4.5042,4.5143,4.524,4.5283,4.5272,4.5274,4.5299,4.5295,4.5279,4.5286,4.5019,4.5267,4.5266,4.5264,4.5263,4.5263,4.4327,4.4405,4.4477,4.4574,4.4631,4.4698,4.4775,4.4815,4.4903,4.5007,4.5016,4.5129,4.5201,4.5329,4.5378,4.5466,4.5439,4.5476,4.5485,4.5493,4.5498,4.5266,4.5484,4.5484,4.5483,4.5483,4.5482,0,4.4534,4.458,4.467,4.477,4.4846,4.483,4.4908,4.4973,4.5072,4.5141,4.5222,4.5342,4.5439,4.5493,4.559,4.5651,4.5648,4.5675,4.567,4.568,4.5518,4.5486,4.5676,4.5676,4.5676,4.5676,4.5676,4.5676,4.4651,4.478,4.4801,4.4957,4.5002,4.5112,4.5158,4.522,4.5274,4.5408,4.5489,4.5524,4.5586,4.5687,4.5776,4.5789,4.5824,4.5854,4.5865,4.5712,4.5692,4.5673,4.5642,4.5862,4.5863,4.6019,4.602,4.6022]},{"header":{"parameterUnit":"m.s-1","parameterCategory":1,"la1":30.2991,"la2":30.254,"lo1":-89.0895,"lo2":-89.0444,"dy":0.0017,"dx":0.0017,"nx":28,"ny":28,"refTime":"2025-07-31T09:00:00:Z","depth":0,"parameterNumber":3,"parameterNumberName":"V-component_of_WINDS"},"data":[0,0,0,0,0,0,0,0,0,0,0,0,0,0,0,0,0,0,0,0,0,0,0,0,0,0,0,0,0,0,0,0,0,0,0,0,0,0,0,0,0,0,0,0,0,0,0,0,0,0,0,0,0,0,0,0,0,0,1.8196,1.8197,0,1.8263,1.8264,1.8265,1.8246,1.8245,1.8244,1.8242,1.8311,1.8314,1.8317,0,0,0,0,0,0,0,0,0,0,0,0,0,1.8051,1.8054,1.8196,1.8197,1.8198,1.8263,1.8264,1.8265,1.8247,1.8245,1.8243,1.8242,1.831,1.8313,1.8317,0,0,0,0,0,0,0,0,0,0,0,0,0,1.8116,1.8055,1.8196,1.8197,1.8197,1.8263,1.8264,1.8265,1.8247,1.8245,1.8243,1.8241,1.8308,1.8313,1.8317,1.8387,0,0,1.8332,1.8334,0,0,0,0,0,0,0,0,1.8112,1.8121,1.8196,1.8197,1.8198,1.8244,1.8238,1.8306,1.8247,1.8228,1.8242,1.824,1.829,1.8296,1.8313,1.839,1.8393,1.8332,1.8335,1.8337,1.8338,0,0,0,0,0,0,0,1.8108,1.8118,1.8223,1.8197,1.8198,1.8193,1.82,1.8251,1.827,1.823,1.8228,1.8237,1.829,1.8309,1.8315,1.8394,1.8332,1.8336,1.8339,1.8341,1.8529,1.8531,0,0,0,0,0,0,1.8102,1.8114,1.8221,1.8225,1.8149,1.8197,1.8205,1.8231,1.8269,1.8273,1.8238,1.8235,1.8302,1.8309,1.8317,1.84,1.8337,1.8341,1.8344,1.8526,1.8529,1.8532,0,0,0,0,0,0,1.8099,1.8112,1.8218,1.8169,1.8182,1.8202,1.8232,1.8234,1.8252,1.8276,1.8279,1.8254,1.8301,1.831,1.8369,1.8402,1.8343,1.8347,1.8524,1.8527,1.853,1.8566,0,0,0,0,0,0,1.8095,1.8111,1.8138,1.817,1.8185,1.827,1.8234,1.8237,1.826,1.8257,1.8291,1.8295,1.83,1.8362,1.8374,1.8407,1.8351,1.8521,1.8525,1.8529,1.8562,1.8571,1.8578,0,0,0,0,0,1.809,1.8146,1.814,1.8153,1.8219,1.8272,1.828,1.8285,1.8263,1.829,1.8305,1.8294,1.8396,1.8368,1.8381,1.8417,1.8519,1.8524,1.8529,1.8559,1.8569,1.8577,0,0,0,0,0,0,1.8118,1.815,1.8144,1.8211,1.8239,1.8268,1.8303,1.8295,1.833,1.8326,1.833,1.8337,1.8397,1.8413,1.8381,1.8485,1.8454,1.8462,1.8473,1.8482,1.849,1.8485,1.8355,0,0,0,0,0,1.8132,1.8172,1.8198,1.8255,1.8269,1.8283,1.8306,1.8307,1.8336,1.8348,1.8367,1.8395,1.8433,1.8458,1.8495,1.8564,1.8571,1.8594,1.8602,1.8608,1.8615,1.8652,1.8662,1.8548,1.8548,1.8548,0,0,1.8161,1.8184,1.8209,1.8261,1.8283,1.8323,1.8293,1.8338,1.8369,1.8354,1.8411,1.8426,1.8457,1.8521,1.855,1.8535,1.8648,1.8614,1.8619,1.8623,1.8658,1.8669,1.8678,1.8551,1.8551,1.855,0,0,1.8236,1.8257,1.8307,1.8328,1.8361,1.837,1.8381,1.8412,1.8421,1.8478,1.8468,1.8503,1.8569,1.8592,1.8612,1.8693,1.8683,1.8704,1.8744,1.878,1.8789,1.8797,1.8826,1.8836,1.8711,1.8711,1.8711,0,1.8268,1.833,1.8333,1.8379,1.8401,1.839,1.844,1.846,1.8503,1.8519,1.8502,1.8584,1.8604,1.8673,1.8692,1.8709,1.8722,1.8701,1.8787,1.8796,1.8803,1.883,1.8841,1.8713,1.8713,1.8713,1.8713,0,1.8368,1.8411,1.8447,1.8488,1.8515,1.8562,1.8572,1.8598,1.8596,1.8607,1.8664,1.8687,1.8728,1.8744,1.8743,1.8812,1.8802,1.8786,1.8756,1.8816,1.8842,1.8853,1.8717,1.8716,1.8715,1.8714,0,0,1.8464,1.8505,1.8518,1.8536,1.857,1.8603,1.8649,1.8689,1.8711,1.8741,1.8779,1.8834,1.882,1.8842,1.8843,1.8874,1.8936,1.8854,1.8855,1.8869,1.9013,1.9026,1.9038,1.893,1.8932,1.8933,1.9011,0,1.8542,1.8624,1.8627,1.8701,1.874,1.8728,1.8768,1.8793,1.8804,1.8838,1.8849,1.8888,1.8865,1.8879,1.8909,1.8922,1.8965,1.8917,1.8965,1.8967,1.8959,1.9051,1.9065,1.9137,1.9021,1.9022,1.9024,0,1.8644,1.8676,1.8755,1.8782,1.8798,1.8834,1.887,1.8903,1.893,1.8935,1.8959,1.8955,1.9002,1.8969,1.9032,1.8999,1.9019,1.9028,1.9031,1.9036,1.9,1.906,1.916,1.9171,1.904,1.9038,1.9037,0,1.8707,1.8769,1.8824,1.8839,1.8872,1.8898,1.8913,1.8938,1.8961,1.8992,1.9007,1.9043,1.9062,1.909,1.9095,1.9071,1.9159,1.9126,1.9164,1.9164,1.9184,1.9183,1.929,1.9196,1.9196,1.9195,1.9195,0,1.8794,1.8842,1.8852,1.8886,1.8939,1.8941,1.8994,1.9007,1.9029,1.9064,1.9056,1.9089,1.9093,1.9128,1.9132,1.9183,1.9192,1.9198,1.9198,1.9199,1.9198,1.9213,1.9208,1.9198,1.9198,1.9197,1.9197,0,1.8873,1.8882,1.894,1.8966,1.8974,1.9012,1.9034,1.9065,1.9074,1.9119,1.9129,1.9143,1.9183,1.919,1.9237,1.924,1.9301,1.9297,1.9292,1.9292,1.9329,1.9326,1.945,1.9466,1.9361,1.9362,1.9363,0,1.8929,1.8965,1.8995,1.9018,1.9034,1.9071,1.9094,1.9097,1.9122,1.9154,1.9182,1.922,1.9252,1.9315,1.9329,1.9365,1.9361,1.9402,1.9366,1.9366,1.9362,1.936,1.9364,1.9409,1.941,1.9411,1.9412,0,1.9026,1.9028,1.9062,1.9097,1.9125,1.9153,1.9179,1.9198,1.9204,1.9232,1.9273,1.9297,1.9344,1.9382,1.9417,1.9432,1.9423,1.9423,1.9433,1.9435,1.9431,1.9434,1.9312,1.942,1.9419,1.9419,1.9418,1.9418,1.9096,1.9127,1.9153,1.919,1.921,1.9235,1.9265,1.9277,1.9311,1.935,1.9349,1.9393,1.9417,1.9463,1.948,1.9514,1.9501,1.9517,1.9521,1.9525,1.9528,1.9425,1.952,1.952,1.952,1.952,1.9519,0,1.9193,1.9208,1.9243,1.9279,1.9309,1.9297,1.9325,1.935,1.9389,1.9413,1.9443,1.9489,1.9525,1.9541,1.9577,1.9601,1.9598,1.961,1.9609,1.9613,1.9538,1.9525,1.9612,1.9612,1.9612,1.9612,1.9612,1.9612,1.9247,1.93,1.9305,1.9367,1.9382,1.9425,1.9442,1.9464,1.9482,1.9534,1.9564,1.9574,1.9594,1.9631,1.9664,1.9667,1.9681,1.9695,1.9697,1.9627,1.9618,1.9609,1.9597,1.9698,1.9698,1.9769,1.977,1.9771]}]]